EW2112 Weather Reports


Display with metric or nautical units.
time (UTC)temp
F
wind
direction
speed
MPH
gust
MPH
rain 1hr
in
rain 24hr
in
rain mn
in
humidity
%
barometer
mb
20260831131549 53 63 0.0 0.0 0.00 0.00 0.00 87 1024.8
20260831130039 53 63 0.0 0.0 0.00 0.00 0.00 86 1024.8
20260831124539 54 63 0.0 0.0 0.00 0.00 0.00 85 1024.9
20260831123041 54 63 0.0 0.0 0.00 0.00 0.00 85 1025.0
20260831121538 55 63 0.0 0.0 0.00 0.00 0.00 84 1025.0
20260831120036 55 63 0.0 0.0 0.00 0.00 0.00 82 1025.1
20260831114536 56 63 0.0 0.0 0.00 0.00 0.00 83 1025.1
20260831113036 56 63 0.0 0.0 0.00 0.00 0.00 82 1025.2
20260831111536 57 63 0.0 0.0 0.00 0.00 0.00 82 1025.3
20260831110038 57 63 0.0 0.0 0.00 0.00 0.00 81 1025.3
20260831104538 58 63 0.0 0.0 0.00 0.00 0.00 80 1025.3
20260831103035 59 63 0.0 0.0 0.00 0.00 0.00 78 1025.3
20260831101535 60 63 0.0 0.0 0.00 0.00 0.00 76 1025.2
20260831100032 61 63 0.0 1.0 0.00 0.00 0.00 75 1025.1
20260831094532 62 63 0.0 0.0 0.00 0.00 0.00 73 1024.9
20260831093032 62 63 0.0 3.0 0.00 0.00 0.00 72 1024.9
20260831091533 63 63 0.0 3.0 0.00 0.00 0.00 71 1024.9
20260831090034 64 62 0.0 3.0 0.00 0.00 0.00 71 1024.9
20260831084531 64 59 0.0 4.0 0.00 0.00 0.00 69 1024.8
20260831083037 65 80 0.0 2.0 0.00 0.00 0.00 67 1024.7
20260831081529 66 80 0.0 3.0 0.00 0.00 0.00 65 1024.6
20260831080028 67 78 0.0 3.0 0.00 0.00 0.00 62 1024.4
20260831074528 68 78 0.0 3.0 0.00 0.00 0.00 59 1024.3
20260831073027 70 38 1.0 4.0 0.00 0.00 0.00 56 1024.2
20260831071527 71 107 1.0 6.0 0.00 0.00 0.00 53 1024.0
20260831070027 73 69 1.0 8.0 0.00 0.00 0.00 56 1023.9
20260831064526 74 76 2.0 7.0 0.00 0.00 0.00 53 1023.8
20260831063025 75 31 1.0 8.0 0.00 0.00 0.00 52 1023.7
20260831061524 75 61 1.0 8.0 0.00 0.00 0.00 53 1023.6
20260831060023 76 86 3.0 8.0 0.00 0.00 0.00 51 1023.5
20260831054522 77 69 2.0 7.0 0.00 0.00 0.00 49 1023.6
20260831053021 78 111 2.0 5.0 0.00 0.00 0.00 47 1023.6
20260831051523 78 111 1.0 6.0 0.00 0.00 0.00 44 1023.6
20260831050020 78 138 1.0 5.0 0.00 0.00 0.00 44 1023.7
20260831044515 78 37 1.0 6.0 0.00 0.00 0.00 40 1023.8
20260831043013 78 166 3.0 9.0 0.00 0.00 0.00 42 1024.0
20260831041529 77 144 2.0 6.0 0.00 0.00 0.00 42 1024.1
20260831040011 79 90 3.0 6.0 0.00 0.00 0.00 40 1024.2
20260831034508 77 130 2.0 5.0 0.00 0.00 0.00 39 1024.3
20260831033006 77 244 1.0 3.0 0.00 0.00 0.00 42 1024.5
20260831031505 76 196 2.0 6.0 0.00 0.00 0.00 41 1024.7
20260831030108 76 322 3.0 7.0 0.00 0.00 0.00 41 1024.9
20260831024617 74 30 1.0 5.0 0.00 0.00 0.00 43 1025.2
20260831023053 74 131 2.0 6.0 0.00 0.00 0.00 41 1025.4
20260831021553 73 244 0.0 5.0 0.00 0.00 0.00 46 1025.7
20260831020047 72 9 3.0 7.0 0.00 0.00 0.00 48 1025.9
20260831014543 71 225 0.0 4.0 0.00 0.00 0.00 50 1026.3
20260831013040 70 355 0.0 4.0 0.00 0.00 0.00 52 1026.7
20260831011547 69 83 1.0 5.0 0.00 0.00 0.00 52 1027.0
20260831010036 68 328 0.0 4.0 0.00 0.00 0.00 56 1027.1
20260831004530 67 327 0.0 4.0 0.00 0.00 0.00 60 1027.3
20260831003033 66 313 1.0 3.0 0.00 0.00 0.00 62 1027.4
20260831001522 64 90 1.0 3.0 0.00 0.00 0.00 66 1027.4
20260831000019 63 17 0.0 4.0 0.00 0.00 0.00 68 1027.4
20260830234513 61 240 0.0 4.0 0.00 0.01 0.00 71 1027.4
20260830233019 60 300 2.0 4.0 0.00 0.01 0.00 73 1027.6
20260830231505 58 301 1.0 5.0 0.00 0.01 0.00 74 1027.5
20260830230001 57 335 1.0 4.0 0.00 0.01 0.00 76 1027.5
20260830224558 56 309 0.0 3.0 0.00 0.01 0.00 77 1027.7
20260830223130 55 286 1.0 4.0 0.00 0.01 0.00 77 1027.7
20260830221554 54 284 2.0 4.0 0.00 0.01 0.00 80 1027.6
20260830220048 53 291 0.0 3.0 0.00 0.01 0.00 82 1027.6
20260830214544 52 298 1.0 3.0 0.00 0.01 0.00 85 1027.3
20260830213040 50 298 0.0 3.0 0.00 0.01 0.00 90 1027.2
20260830211536 48 19 0.0 1.0 0.00 0.01 0.00 94 1027.1
20260830210032 47 23 0.0 1.0 0.00 0.01 0.00 93 1027.2
20260830204528 46 23 0.0 1.0 0.00 0.01 0.00 93 1026.9
20260830203026 46 23 0.0 1.0 0.00 0.01 0.00 92 1026.8
20260830201523 47 23 0.0 1.0 0.00 0.01 0.00 92 1026.6
20260830200021 47 23 0.0 1.0 0.00 0.01 0.00 92 1026.6
20260830194522 48 23 0.0 2.0 0.00 0.01 0.00 92 1026.4
20260830193019 48 23 0.0 1.0 0.00 0.01 0.00 92 1026.2
20260830191520 48 23 0.0 3.0 0.00 0.01 0.00 92 1026.0
20260830190021 48 23 0.0 2.0 0.00 0.01 0.00 92 1025.9
20260830184523 48 23 1.0 3.0 0.00 0.01 0.00 92 1025.9
20260830183015 48 24 1.0 4.0 0.00 0.01 0.00 93 1026.1
20260830181514 47 30 0.0 2.0 0.00 0.01 0.00 92 1026.1
20260830180013 48 30 0.0 0.0 0.00 0.01 0.00 91 1026.3
20260830174511 48 30 0.0 2.0 0.00 0.01 0.00 92 1026.2
20260830173010 48 30 1.0 2.0 0.00 0.01 0.00 92 1026.2
20260830171509 48 30 1.0 3.0 0.00 0.01 0.00 93 1026.3
20260830170007 47 103 0.0 0.0 0.00 0.01 0.00 91 1026.6
20260830164506 48 103 0.0 0.0 0.00 0.01 0.00 91 1026.6
20260830163003 48 103 0.0 1.0 0.00 0.01 0.00 91 1026.5
20260830161501 48 103 0.0 0.0 0.00 0.01 0.00 91 1026.6
20260830160059 48 103 0.0 0.0 0.00 0.01 0.00 91 1026.5
20260830154558 49 103 0.0 0.0 0.00 0.01 0.00 91 1026.6
20260830153056 49 103 0.0 0.0 0.00 0.01 0.00 91 1026.6
20260830151607 49 103 0.0 0.0 0.00 0.01 0.00 90 1026.6
20260830150100 50 103 0.0 0.0 0.00 0.01 0.00 89 1026.5
20260830144551 50 103 0.0 0.0 0.00 0.01 0.00 89 1026.7
20260830143049 51 103 0.0 2.0 0.00 0.01 0.00 89 1026.7
20260830141548 51 103 0.0 0.0 0.00 0.01 0.00 90 1026.7
20260830140046 51 103 0.0 0.0 0.00 0.01 0.00 89 1026.7
20260830134545 51 103 0.0 0.0 0.00 0.01 0.01 88 1026.7
20260830133044 51 103 0.0 0.0 0.00 0.01 0.01 88 1026.8